Scottsboro, AL

1:13 AM CDT on May 24, 2017 (GMT -0500)
Scottsboro

Weather History for K4A6 - March, 2013

Change the Weather History Date:

Sunday, March 31, 2013

  Actual Average (KHSV) Record (KHSV)
Temperature  
Mean Temperature 60 °F -  
Max Temperature 64 °F 66 °F 88 °F (1963)
Min Temperature 55 °F 45 °F 26 °F (1942)
Degree Days  
Heating Degree Days 6    
Growing Degree Days 10 (Base 50)    
Moisture  
Dew Point 56 °F    
Average Humidity 93    
Maximum Humidity 100    
Minimum Humidity 73    
Precipitation  
Precipitation 0.24 in - - ()
Sea Level Pressure  
Sea Level Pressure 29.95 in    
Wind  
Wind Speed 4 mph (SW)    
Max Wind Speed 9 mph    
Max Gust Speed -    
Averages and records for this station are not official NWS values.
T = Trace of Precipitation, MM = Missing Value Source: NWS Daily Summary

Daily Weather History Graph

Daily Weather History Graph

Search for Another Location

Airport or City:

Trip Planner

Search our weather history database for the weather conditions in past years. The results will help you decide how hot, cold, wet, or windy it might be!

Date:

Astronomy

Mar. 31, 2013 Rise Set
Actual Time 6:32 AM CDT 7:04 PM CDT
Civil Twilight 6:06 AM CDT 7:30 PM CDT
Nautical Twilight 5:36 AM CDT 7:59 PM CDT
Astronomical Twilight 5:06 AM CDT 8:30 PM CDT
Moon No Moon Rise 9:29 AM CDT (3/31)
Length of Visible Light 13h 23m
Length of Day
12h 32m
Waning Gibbous, 77% of the Moon is Illuminated
Mar 31
Waning Gibbous
Apr 2
Last Quarter
Apr 10
New
Apr 18
First Quarter
Apr 25
Full

Hourly Weather History & Observations

Time (CDT) Temp. Dew Point Humidity Pressure Visibility Wind Dir Wind Speed Gust Speed Precip Events Conditions
12:15 AM 55.4 °F 55.4 °F 100% 29.98 in - SSE 3.5 mph - 0.01 in Rain Light Rain
12:35 AM 55.4 °F 55.4 °F 100% 29.98 in - Calm Calm - 0.03 in Rain Light Rain
12:55 AM 55.4 °F 55.4 °F 100% 29.98 in - Calm Calm - 0.09 in Rain Light Rain
1:15 AM 55.4 °F 55.4 °F 100% 29.97 in - SSW 3.5 mph - 0.01 in Rain Light Rain
1:35 AM 55.4 °F 55.4 °F 100% 29.96 in - SSW 5.8 mph - 0.01 in   Unknown
1:55 AM 55.4 °F 55.4 °F 100% 29.96 in - SW 3.5 mph - 0.02 in   Unknown
2:15 AM 55.4 °F 55.4 °F 100% 29.96 in - West 6.9 mph - N/A   Overcast
2:35 AM 55.4 °F 55.4 °F 100% 29.96 in - WSW 5.8 mph - N/A Rain Light Rain
2:55 AM 55.4 °F 55.4 °F 100% 29.96 in - SW 3.5 mph - N/A   Unknown
3:15 AM 55.4 °F 55.4 °F 100% 29.95 in - SW 3.5 mph - N/A   Overcast
3:35 AM 57.2 °F 55.4 °F 94% 29.95 in - West 6.9 mph - N/A   Mostly Cloudy
3:55 AM 57.2 °F 55.4 °F 94% 29.94 in - WSW 5.8 mph - N/A   Unknown
4:15 AM 57.2 °F 55.4 °F 94% 29.94 in - WSW 6.9 mph - N/A   Unknown
4:35 AM 57.2 °F 55.4 °F 94% 29.94 in - WSW 9.2 mph - N/A   Overcast
4:55 AM 57.2 °F 55.4 °F 94% 29.94 in - WSW 6.9 mph - N/A   Unknown
5:15 AM 57.2 °F 55.4 °F 94% 29.94 in - WSW 5.8 mph - N/A   Unknown
5:35 AM 57.2 °F 55.4 °F 94% 29.95 in - WSW 5.8 mph - N/A   Unknown
5:55 AM 57.2 °F 55.4 °F 94% 29.95 in - SW 3.5 mph - N/A   Unknown
6:15 AM 57.2 °F 55.4 °F 94% 29.95 in - SW 3.5 mph - N/A   Unknown
6:35 AM 55.4 °F 55.4 °F 100% 29.95 in - SSW 3.5 mph - N/A   Unknown
6:55 AM 55.4 °F 55.4 °F 100% 29.95 in - Calm Calm - N/A   Unknown
7:15 AM 55.4 °F 55.4 °F 100% 29.97 in - WSW 4.6 mph - N/A   Overcast
7:35 AM 57.2 °F 55.4 °F 94% 29.97 in - South 3.5 mph - N/A   Unknown
7:55 AM 57.2 °F 55.4 °F 94% 29.97 in - SW 4.6 mph - N/A   Unknown
8:15 AM 57.2 °F 55.4 °F 94% 29.97 in - SW 4.6 mph - N/A   Unknown
8:35 AM 57.2 °F 55.4 °F 94% 29.97 in - SSW 4.6 mph - N/A   Unknown
8:55 AM 57.2 °F 55.4 °F 94% 29.97 in - Calm Calm - N/A   Unknown
9:15 AM 57.2 °F 55.4 °F 94% 29.95 in - Calm Calm - N/A   Overcast
9:35 AM 57.2 °F 53.6 °F 88% 29.96 in - Calm Calm - N/A   Overcast
9:55 AM 59.0 °F 53.6 °F 82% 29.96 in - SW 6.9 mph - N/A   Overcast
10:15 AM 59.0 °F 53.6 °F 82% 29.97 in - SW 5.8 mph - N/A   Overcast
10:35 AM 59.0 °F 53.6 °F 82% 29.96 in - South 5.8 mph - N/A   Overcast
10:55 AM 59.0 °F 53.6 °F 82% 29.95 in - SW 5.8 mph - N/A   Overcast
11:15 AM 59.0 °F 53.6 °F 82% 29.96 in - SW 8.1 mph - N/A   Overcast
11:35 AM 57.2 °F 55.4 °F 94% 29.96 in - SW 4.6 mph - 0.03 in Rain Light Rain
11:55 AM 57.2 °F 57.2 °F 100% 29.95 in - WSW 5.8 mph - 0.06 in Rain Light Rain
12:15 PM 57.2 °F 57.2 °F 100% 29.95 in - SW 5.8 mph - 0.02 in Rain Light Rain
12:35 PM 57.2 °F 57.2 °F 100% 29.94 in - SW 8.1 mph - 0.04 in Rain Light Rain
12:55 PM 57.2 °F 57.2 °F 100% 29.95 in - SW 8.1 mph - 0.04 in Rain Light Rain
1:15 PM 59.0 °F 57.2 °F 94% 29.93 in - SW 6.9 mph - N/A   Unknown
1:35 PM 59.0 °F 57.2 °F 94% 29.92 in - WSW 6.9 mph - N/A   Mostly Cloudy
1:55 PM 62.6 °F 57.2 °F 82% 29.92 in - SW 8.1 mph - N/A   Partly Cloudy
2:15 PM 62.6 °F 57.2 °F 82% 29.91 in - SW 6.9 mph - N/A   Scattered Clouds
2:35 PM 62.6 °F 57.2 °F 82% - - WSW 3.5 mph - N/A   Mostly Cloudy
2:55 PM 64.4 °F 57.2 °F 77% - - WSW 6.9 mph - N/A   Overcast
3:15 PM 64.4 °F 55.4 °F 73% - - SSW 5.8 mph - N/A   Overcast
3:35 PM 64.4 °F 57.2 °F 77% - - WSW 3.5 mph - N/A   Overcast
3:55 PM 64.4 °F 55.4 °F 73% - - SW 4.6 mph - N/A   Mostly Cloudy
4:15 PM 64.4 °F 55.4 °F 73% - - SW 8.1 mph - N/A   Overcast
4:35 PM 64.4 °F 55.4 °F 73% - - WSW 5.8 mph - 0.01 in   Overcast
4:55 PM 62.6 °F 57.2 °F 82% - - WNW 3.5 mph - 0.01 in   Overcast
5:15 PM 60.8 °F 59.0 °F 94% - - NNW 3.5 mph - N/A   Unknown
5:35 PM 59.0 °F 57.2 °F 94% - - NW 6.9 mph - 0.02 in   Unknown
5:55 PM 59.0 °F 57.2 °F 94% - - Calm Calm - 0.02 in   Unknown
6:15 PM 59.0 °F 57.2 °F 94% - - Calm Calm - N/A   Unknown
6:35 PM 59.0 °F 57.2 °F 94% - - SW 5.8 mph - N/A   Unknown
6:55 PM 59.0 °F 57.2 °F 94% - - SW 4.6 mph - N/A   Unknown
7:15 PM 59.0 °F 57.2 °F 94% - - WSW 4.6 mph - N/A   Overcast
7:35 PM 59.0 °F 57.2 °F 94% - - Calm Calm - N/A   Unknown
7:55 PM 59.0 °F 57.2 °F 94% - - Calm Calm - N/A   Unknown
8:15 PM 59.0 °F 57.2 °F 94% - - Calm Calm - N/A   Overcast
8:35 PM 57.2 °F 57.2 °F 100% - - Calm Calm - N/A   Overcast
9:15 PM 57.2 °F 57.2 °F 100% - - Calm Calm - N/A   Unknown
9:35 PM 57.2 °F 57.2 °F 100% - - Calm Calm - N/A   Overcast
9:55 PM 57.2 °F 57.2 °F 100% - - Calm Calm - N/A   Unknown
10:15 PM 57.2 °F 57.2 °F 100% - - Calm Calm - N/A   Unknown
10:35 PM 57.2 °F 57.2 °F 100% - - Calm Calm - N/A   Overcast
10:55 PM 57.2 °F 57.2 °F 100% - - Calm Calm - N/A   Unknown
11:15 PM 55.4 °F 55.4 °F 100% - - Calm Calm - N/A   Unknown
11:35 PM 55.4 °F 55.4 °F 100% - - Calm Calm - N/A   Overcast
11:55 PM 55.4 °F 55.4 °F 100% - - Calm Calm - N/A   Overcast